Location: Ab? ar R?sh Ba?r?
(24.1861°N, 32.8847°E)
Time: 00:35:45
(UTC+00:00)

Feng Yun 1-1 Rocket - Pass Details

Date: 24 October 2021
Orbit: 830 x 933 km, 99.2° (Epoch: 05 December)

Event Time Altitude Azimuth Distance (km) Brightness Sun altitude
Rises 16:33:23 0° 161° (SSE) 3,385 7.2 -18.6°
Reaches altitude 10° 16:35:43 10° 159° (SSE) 2,463 6.5 -19.1°
Maximum altitude 16:41:10 73° 75° (ENE) 899 4.1 -20.4°
Drops below altitude 10° 16:46:46 10° 352° (N) 2,537 6.7 -21.6°
Sets 16:49:12 0° 350° (N) 3,494 7.5 -22.2°
